Probability
10 10 11 12 14 15 13 9 6 5 4 3 4 6 8 8 6 4 3 1 0 0 1 2 2 1 2 2 2 1 0 1 2 3 3 3 3 2
8 8 9 11 12 12 12 10 8 7 6 5 6 6 7 6 5 5 4 2 1 0 0 1 1 1 1 1 1 0 0 0 1 2 3 3 3 3
4 4 5 7 8 9 10 10 9 8 8 8 8 9 7 4 4 4 4 3 2 1 0 0 0 0 0 0 0 0 0 0 0 1 1 2 3 3
1 1 1 3 5 6 7 7 7 7 7 8 9 10 7 3 2 3 3 3 2 1 0 0 0 0 0 0 0 0 0 0 0 0 0 1 2 2
2 2 2 2 3 4 3 3 3 4 5 7 8 8 6 2 1 2 2 2 1 0 0 0 0 0 0 0 0 0 0 0 0 0 0 0 1 1
5 5 4 3 2 1 1 0 1 3 4 5 6 6 5 3 2 1 1 2 2 0 0 0 0 0 0 0 0 0 0 0 0 0 0 0 0 0
6 6 6 4 2 0 0 0 2 3 3 4 5 4 4 4 3 2 2 3 3 2 1 1 0 0 1 1 0 0 0 0 0 0 0 0 0 0
6 6 5 3 1 0 0 0 1 1 2 3 3 3 4 4 4 3 3 4 4 4 3 2 1 1 2 1 0 0 0 0 0 0 0 0 0 0
6 5 4 3 2 2 1 0 0 0 1 2 2 3 3 4 3 3 3 4 5 5 4 3 2 2 2 1 0 0 0 0 0 0 0 0 0 0
3 3 3 3 3 2 2 1 1 0 0 1 1 2 3 3 3 3 3 4 6 5 4 3 3 2 1 0 0 0 0 0 0 0 0 0 0 0
2 2 2 3 2 2 2 2 2 1 0 0 0 1 1 2 2 3 3 4 5 5 5 4 3 1 0 0 0 0 0 0 0 0 0 0 0 0
2 2 2 1 1 1 1 2 2 2 1 1 0 0 0 0 1 2 3 3 4 5 6 5 2 1 0 0 0 0 0 0 0 0 0 0 0 0
3 3 2 1 0 0 0 1 1 1 1 1 0 0 0 0 0 1 1 2 3 5 5 4 2 1 0 0 0 0 0 0 0 0 0 0 0 0
3 3 2 1 0 0 0 0 0 0 1 1 0 0 0 0 0 0 0 1 2 3 4 4 3 2 1 1 0 0 0 0 0 0 0 0 0 0
2 1 1 0 0 0 0 0 0 0 0 0 0 0 0 0 0 0 0 1 1 1 1 3 3 3 3 2 1 0 0 0 0 0 0 0 0 0
1 0 0 0 1 1 1 1 0 0 0 0 0 0 0 0 0 0 0 0 0 0 0 1 2 3 3 3 2 1 0 0 0 0 0 0 0 0
0 0 0 0 1 2 2 2 1 1 0 0 0 0 0 0 0 0 0 0 0 0 0 0 1 2 2 2 2 1 0 0 0 0 0 0 0 0
0 0 0 0 1 2 3 3 3 2 1 0 0 0 0 0 0 0 0 0 0 0 0 0 0 0 0 1 1 1 0 0 0 0 0 0 0 0
0 0 0 0 0 1 2 2 2 2 2 1 1 0 0 0 0 0 0 0 0 0 0 0 0 0 0 0 0 0 0 0 0 0 0 0 0 0
0 0 0 0 0 0 1 1 1 1 2 3 2 1 1 0 0 0 0 0 0 0 0 0 0 0 0 0 0 0 0 0 0 0 0 0 0 0
0 0 0 0 0 0 0 0 0 1 2 3 3 3 2 1 0 0 1 0 0 0 0 0 0 0 0 0 0 0 0 0 0 0 0 0 0 0
0 0 0 0 0 0 0 0 0 0 1 1 2 4 3 1 0 0 0 0 0 0 0 0 0 0 0 0 0 0 0 0 0 0 0 0 0 0
0 0 0 0 0 0 0 0 0 0 0 0 2 4 4 1 0 0 0 0 0 0 0 0 0 0 0 0 0 0 0 0 0 0 0 0 0 0
Wind_Speed
7 7 7 5 6 6 5 6 6 6 5 5 5 4 4 4 4 6 6 6 8 8 8 8 8 8 8 8 7 7 7 8 8 9 9 9 10 10
5 6 6 6 5 5 5 5 6 7 6 4 4 4 3 4 4 6 6 6 9 10 9 8 8 8 8 8 7 7 7 8 8 9 9 10 10 11
6 6 7 7 6 6 6 6 6 6 6 5 4 3 4 5 4 5 6 6 5 10 9 8 8 8 8 8 8 8 8 8 8 8 9 9 9 10
6 7 8 6 8 7 6 6 6 5 6 6 4 4 5 5 5 6 5 5 5 6 9 9 9 9 9 9 9 8 8 8 8 8 9 9 9 10
7 7 8 7 8 7 7 7 6 6 6 5 5 4 4 5 5 5 6 5 6 5 9 10 10 10 9 9 9 9 8 8 8 8 9 9 9 10
7 7 8 8 9 8 7 7 6 6 6 6 5 5 5 5 5 5 5 5 4 4 4 5 8 10 10 10 10 9 8 8 8 8 9 9 9 9
7 7 7 6 6 7 6 6 7 6 6 5 5 5 4 4 4 4 4 4 3 4 4 4 5 5 6 8 9 9 8 8 8 8 9 9 8 8
6 6 6 7 7 8 8 8 8 8 7 6 6 5 5 5 4 5 4 4 4 3 4 4 4 4 4 4 5 7 8 8 8 8 8 8 9 9
5 5 5 5 6 7 8 9 9 10 10 8 7 7 6 5 5 6 5 5 4 3 4 5 4 4 4 3 6 7 7 8 8 8 8 8 9 9
5 6 6 6 5 6 6 7 7 7 8 9 8 7 6 5 5 6 5 5 5 4 5 5 4 4 4 3 6 8 8 8 8 7 7 8 9 9
5 5 5 5 3 3 5 6 5 5 5 6 6 6 4 5 6 5 5 5 4 4 3 4 4 4 4 3 4 8 9 9 8 8 7 7 7 8
4 4 4 4 3 3 5 5 5 5 4 4 5 7 7 6 8 7 6 5 5 4 3 4 4 4 4 3 3 3 5 7 8 8 8 7 7 6
4 3 2 3 4 4 5 4 4 4 4 5 5 5 5 4 5 5 4 5 5 4 2 3 4 4 4 3 3 3 3 3 4 5 6 7 8 7
4 3 1 2 3 4 4 4 4 5 5 4 4 3 3 3 2 2 3 4 4 4 3 4 4 4 4 4 3 2 2 2 3 3 3 5 7 8
3 2 2 3 4 5 5 6 6 5 4 4 3 3 2 1 2 2 3 4 4 5 4 4 4 4 4 4 3 3 3 3 3 3 2 3 3 3
3 3 5 6 5 3 3 4 4 3 3 3 2 2 2 2 3 3 3 4 3 3 3 3 3 4 4 4 4 3 3 2 2 3 3 3 3 3
5 4 3 2 2 2 2 2 2 2 3 2 2 2 2 2 2 2 3 3 3 3 2 2 2 2 3 4 3 3 2 2 2 2 3 3 2 2
5 4 3 3 2 2 2 2 2 1 1 2 2 2 2 2 2 2 3 3 3 3 2 1 2 2 2 1 2 3 2 2 2 2 3 3 2 2
4 3 2 2 2 2 2 2 1 1 2 2 2 2 2 2 2 2 2 2 2 2 2 2 2 2 3 2 0 2 2 1 2 2 2 3 3 2
3 2 2 2 2 2 2 2 1 2 2 2 2 2 2 2 2 2 2 2 2 2 1 1 1 1 2 2 1 1 1 2 2 2 2 2 2 1
2 2 2 2 2 2 2 1 2 2 2 2 1 2 2 2 2 2 2 2 3 2 1 1 1 2 2 2 1 0 1 2 1 2 3 3 2 2
2 2 2 2 2 2 1 1 1 1 2 2 1 2 2 2 2 2 2 2 2 2 1 0 1 2 2 2 1 1 1 1 3 3 1 3 3 3
2 3 3 2 2 2 2 2 2 2 1 2 2 2 2 2 2 2 2 2 1 1 1 1 1 2 1 1 1 1 1 1 0 1 1 2 4 4
Wind_Direction
234 231 239 239 241 245 245 242 245 247 241 227 229 222 230 232 218 235 241 201 211 223 227 227 230 233 235 237 240 243 244 243 245 250 255 260 260 261
237 239 242 242 241 241 242 243 245 250 252 238 234 233 236 249 223 241 244 209 212 213 217 220 224 229 230 233 237 238 241 244 246 248 253 257 259 258
238 234 237 243 243 243 241 241 241 243 247 250 243 225 230 248 245 246 245 239 217 195 201 209 215 219 223 230 233 235 237 242 246 249 252 255 258 261
239 239 238 236 233 237 240 241 242 243 243 245 244 235 233 237 241 244 248 242 243 185 188 201 209 215 220 226 229 231 233 238 245 250 253 255 257 260
241 242 240 237 238 234 234 238 241 238 235 240 242 238 235 231 236 239 244 244 241 201 190 198 207 214 220 223 226 229 231 235 241 246 250 253 256 260
244 243 242 239 240 237 232 232 237 239 234 233 237 235 233 226 227 229 236 228 235 232 221 215 206 209 216 218 222 224 226 230 236 242 245 247 251 256
246 242 245 244 247 246 243 232 230 233 233 231 234 235 234 226 229 241 245 238 232 235 237 233 222 226 219 214 216 214 220 226 231 237 242 243 246 252
257 252 247 230 230 229 238 239 240 235 236 238 239 238 238 238 242 246 246 243 244 228 245 246 242 242 239 237 202 199 213 222 229 235 241 245 248 252
258 257 258 253 239 236 220 217 228 235 237 245 247 245 241 240 247 250 250 254 259 244 247 253 247 247 244 231 177 192 206 217 227 235 243 249 252 252
256 258 260 262 258 251 241 234 234 232 231 231 239 245 245 240 242 251 251 248 246 235 234 257 254 256 252 235 181 190 203 215 224 232 239 247 253 255
258 261 260 259 266 242 235 238 242 245 237 234 238 241 255 252 249 247 243 244 247 244 243 255 262 264 259 244 198 192 201 207 214 225 234 240 251 256
264 262 257 253 262 229 233 240 243 251 254 237 225 221 225 225 223 233 243 246 251 256 239 249 257 263 263 250 239 216 212 201 207 216 219 222 234 252
276 273 269 191 227 238 241 245 251 261 259 251 245 232 220 214 216 224 245 253 256 261 254 256 265 266 272 271 259 247 244 243 223 217 209 210 219 240
283 288 291 174 215 235 235 237 240 246 243 239 243 242 235 231 229 239 241 251 255 256 266 267 266 270 272 270 265 265 263 264 261 250 237 205 217 219
285 311 297 252 243 232 218 221 227 233 235 235 242 250 259 253 237 223 225 225 231 235 234 242 252 262 266 268 272 273 278 272 266 264 261 253 249 241
259 243 219 226 234 247 223 214 227 238 243 247 251 256 254 236 229 229 225 218 224 223 215 224 245 256 263 266 266 261 260 264 262 263 269 264 257 254
315 274 259 247 237 226 224 231 232 225 228 237 236 241 246 239 234 234 244 236 235 235 219 203 212 243 254 265 253 261 263 265 262 263 256 260 261 261
278 265 264 259 260 261 249 243 246 240 235 242 246 247 245 244 245 244 243 246 249 251 246 217 211 228 237 249 295 270 268 284 280 260 263 270 275 285
249 267 273 275 272 269 273 270 266 238 231 240 243 245 249 243 240 245 249 251 256 261 255 232 229 251 261 266 223 302 293 286 283 272 270 285 290 304
258 276 276 269 265 266 280 291 279 249 230 239 238 234 238 245 244 239 242 253 261 256 254 247 243 264 280 301 312 290 243 280 284 284 293 301 306 184
276 279 278 281 281 285 283 272 263 258 260 251 250 250 238 239 247 249 242 234 244 243 256 303 357 273 269 273 268 346 85 137 253 281 293 289 296 291
292 294 298 296 288 280 269 259 263 262 260 254 253 252 244 242 247 250 249 237 230 224 231 165 171 228 250 263 295 317 323 105 135 136 23 312 300 307
288 291 286 281 275 266 268 260 264 275 272 271 263 249 242 239 247 246 246 250 243 201 190 218 249 246 255 250 275 307 324 312 254 142 110 149 177 192